Flag for Russia Weather past 2 weeks in Chelyabinsk, Russia

Now
16 °F

Sunny.


Feels Like: 3 °F
Forecast: 4 / 17 °F
Wind: 10 mph from West

Location: Chelyabinsk-Balandino

Current Time: Jan 26, 2015 at 5:41:01 PM

Latest Report: Jan 26, 2015 at 5:00 PM


Visibility: 10 mi

Pressure: 30.57 "Hg

Humidity: 45%

Dew point: -2 °F

Location of ChelyabinskLocation

Historic Weather in Chelyabinsk — Graph

°F

Chelyabinsk temperature yesterday

Maximum temperature yesterday: 14 °F (at 9:30 PM)
Minimum temperature yesterday: -18 °F (at 4:00 AM)
Average temperature yesterday: -4 °F

Past Weeks' High & Low Weather Summary

 TemperatureHumidityPressure
High37 °F (Jan 16, 5:00 PM)93% (Jan 13, 10:00 AM)30.86 "Hg (Jan 13, 10:00 AM)
Low-18 °F (Jan 25, 4:00 AM)34% (Jan 18, 11:30 PM)29.39 "Hg (Jan 13, 12:30 PM)
Average14 °F70%30.09 "Hg
* Reported Jan 11 4:00 PM — Jan 26 4:30 PM, Chelyabinsk, Weather by CustomWeather, © 2014

Note: Actual official high and low records may vary slightly from our data, if they occured in-between our weather recording intervals... More about our weather records

Advertising

Chelyabinsk weather history for previous 24 hours

 ConditionsComfort  
Time TempWeatherWind HumidityBarometerVisibility
4:30 PM
Jan 26
18 °FSunny.13 mph41%30.57 "Hg10 mi
4:00 PM19 °FSunny.13 mph38%30.57 "Hg10 mi
3:30 PM18 °FSunny.10 mph49%30.57 "Hg10 mi
3:00 PM18 °FSunny.10 mph45%30.57 "Hg10 mi
2:30 PM18 °FSunny.8 mph45%30.57 "Hg10 mi
2:00 PM16 °FSunny.8 mph53%30.57 "Hg10 mi
1:30 PM16 °FSunny.6 mph53%30.60 "Hg10 mi
1:00 PM16 °FSunny.6 mph57%30.60 "Hg10 mi
12:30 PM14 °FSunny.8 mph62%30.60 "Hg10 mi
12:00 PM12 °FBroken clouds.3 mph67%30.63 "Hg4 mi
11:30 AM10 °FBroken clouds.3 mph67%30.63 "Hg4 mi
11:00 AM10 °FBroken clouds.6 mph67%30.63 "Hg4 mi
10:30 AM9 °FPartly cloudy.3 mph72%30.63 "Hg4 mi
10:00 AM7 °FClear.3 mph72%30.63 "Hg10 mi
9:30 AM5 °FClear.3 mph72%30.63 "Hg10 mi
9:00 AM5 °FClear.6 mph72%30.63 "Hg10 mi
8:30 AM5 °FClear.6 mph66%30.66 "Hg10 mi
7:30 AM7 °FClear.3 mph66%30.66 "Hg10 mi
7:00 AM7 °FPartly cloudy.8 mph61%30.66 "HgN/A
6:30 AM9 °FMostly cloudy.8 mph61%30.66 "HgN/A
6:00 AM9 °FMostly cloudy.6 mph66%30.66 "HgN/A
5:30 AM10 °FMostly cloudy.3 mph61%30.66 "HgN/A
5:00 AM10 °FMostly cloudy.6 mph61%30.66 "HgN/A
4:30 AM10 °FLight snow. Mostly cloudy.10 mph61%30.66 "HgN/A
4:00 AM10 °FLight snow. Mostly cloudy.13 mph67%30.66 "HgN/A
3:30 AM10 °FLight snow. Mostly cloudy.13 mph61%30.66 "HgN/A
3:00 AM9 °FLight snow. Mostly cloudy.10 mph66%30.66 "HgN/A
2:30 AM7 °FClear.6 mph61%30.66 "Hg10 mi
2:00 AM5 °FClear.6 mph66%30.66 "Hg10 mi
1:30 AM9 °FClear.3 mph56%30.69 "Hg10 mi
1:00 AM10 °FClear.10 mph56%30.66 "Hg10 mi
12:30 AM10 °FClear.10 mph56%30.69 "Hg10 mi
12:00 AM12 °FClear.8 mph57%30.66 "Hg10 mi
11:30 PM
Jan 25
12 °FClear.10 mph52%30.66 "Hg10 mi
11:00 PM14 °FClear.13 mph44%30.66 "Hg10 mi
10:30 PM14 °FClear.8 mph48%30.66 "Hg10 mi
10:00 PM14 °FClear.10 mph48%30.66 "Hg10 mi
9:30 PM14 °FMostly cloudy.13 mph48%30.66 "HgN/A
9:00 PM12 °FMostly cloudy.13 mph52%30.66 "Hg3 mi
8:30 PM10 °FMostly cloudy.8 mph56%30.69 "Hg3 mi
8:00 PM7 °FMostly cloudy.6 mph66%30.69 "Hg3 mi
7:30 PM7 °FMostly cloudy.8 mph61%30.69 "Hg3 mi
7:00 PM7 °FOvercast.6 mph61%30.72 "Hg3 mi
6:30 PM7 °FMore clouds than sun.3 mph61%30.72 "Hg3 mi
6:00 PM7 °FMore clouds than sun.1 mph61%30.72 "Hg3 mi
5:30 PM9 °FMore clouds than sun.3 mph61%30.72 "Hg3 mi
5:00 PM7 °FMore clouds than sun.6 mph61%30.72 "Hg3 mi
Weather by CustomWeather, © 2014

See weather overviewHow to use our weather pages